This demonstration page uses our WeatherBlox Daily Observations layout. Learn more.

Left ArrowRight Arrow

Hourly Observations for July 5, 2022

Temp ( °F °C ) Dew Point ( °F °C ) Humidity (%) Winds ( mph kmh ) Pressure ( in mb ) Visibility ( mi km ) Precip ( " mm )
12:53 am 00:53 Cloudy 73 22.8 59 15 62 62 N 8 13 29.86 1011 10 16 0.00 0.00
1:53 am 01:53 Cloudy 71 21.7 61 16.1 71 71 WNW 6 9 29.87 1012 10 16 0.00 0.00
2:53 am 02:53 Mostly Clear 70 21.1 60 15.6 71 71 N 9 15 29.87 1011 10 16 0.00 0.00
3:53 am 03:53 Mostly Cloudy 70 21.1 60 15.6 71 71 NNW 3 6 29.87 1012 10 16 0.00 0.00
4:53 am 04:53 Cloudy 69 20.6 60 15.6 73 73 NNW 5 7 29.88 1012 10 16 0.00 0.00
5:53 am 05:53 Cloudy 70 21.1 59 15 68 68 NE 5 7 29.88 1012 10 16 0.00 0.00
6:53 am 06:53 Cloudy 71 21.7 59 15 66 66 N 3 6 29.89 1012 10 16 0.00 0.00
7:53 am 07:53 Cloudy 73 22.8 58 14.4 59 59 SSE 6 9 29.89 1012 10 16 0.00 0.00
8:53 am 08:53 Cloudy 74 23.3 58 14.4 57 57 VRB 5 7 29.90 1013 10 16 0.00 0.00
9:53 am 09:53 Cloudy 76 24.4 58 14.4 54 54 SE 10 17 29.89 1012 10 16 0.00 0.00
10:53 am 10:53 Cloudy 78 25.6 57 13.9 48 48 SSE 13 20 29.88 1012 10 16 0.00 0.00
11:53 am 11:53 Cloudy 81 27.2 57 13.9 44 44 SSE 13 20 29.88 1012 10 16 0.00 0.00
12:53 pm 12:53 Cloudy 84 28.9 56 13.3 38 38 SE 13 20 29.86 1011 10 16 0.00 0.00
1:53 pm 13:53 Cloudy 84 28.9 53 11.7 34 34 S 14 22 29.85 1011 10 16 0.00 0.00
2:53 pm 14:53 Cloudy 82 27.8 57 13.9 42 42 W 7 11 29.85 1011 10 16 0.00 0.00
3:53 pm 15:53 Cloudy 82 27.8 57 13.9 42 42 WNW 6 9 29.83 1010 10 16 0.00 0.00
4:53 pm 16:53 Cloudy 84 28.9 56 13.3 38 38 SW 5 7 29.80 1009 10 16 0.00 0.00
5:53 pm 17:53 Mostly Cloudy 88 31.1 53 11.7 30 30 S 13 20 29.78 1008 10 16 0.00 0.00
6:53 pm 18:53 Sunny 87 30.6 52 11.1 30 30 SSE 20 31 29.77 1008 10 16 0.00 0.00
7:53 pm 19:53 Sunny 85 29.4 54 12.2 35 35 S 17 28 29.78 1008 10 16 0.00 0.00
8:53 pm 20:53 Clear 82 27.8 54 12.2 38 38 S 13 20 29.79 1009 10 16 0.00 0.00
9:53 pm 21:53 Clear 80 26.7 54 12.2 41 41 SSE 8 13 29.81 1010 10 16 0.00 0.00
10:53 pm 22:53 Clear 77 25 54 12.2 45 45 S 7 11 29.84 1010 10 16 0.00 0.00
11:53 pm 23:53 Clear 77 25 55 12.8 47 47 S 8 13 29.83 1010 10 16 0.00 0.00

Powered by AerisWeather